contact:dominique.lefevre@mio.osupytheas.fr, maurice.libes@osupytheas.fr, didier.mallarino@osupytheas.fr
Project:EMSO http://www.emso-fr.org/EMSO-France
Depth: 2436.0 m
Title:EMSO Ligure Ouest : Data MII capteur AQUADOPP
Date,Latitude,Longitude,X_East,Y_North,Z_Up,Amplitude_X,Amplitude_Y,Amplitude_Z,Batterie,SoundSpeed,Heading,Pitch,Roll,Pressure,TIS,Speed,Direction
, degrees North, degrees East, m.s-1, m.s-1,m.s-1, 1, 1, 1, Volt, m.s-1, degree, degree, degree, dbar, degree_C, m.s-1, degree
2022-09-04T00:04:03,42.805,6.029,0.005,-0.007,-0.031,100.0,101.0,100.0,13.4,1505.2,334.2,-0.7,1.8,2471.076,13.28,0.008,144.5
2022-09-04T00:07:03,42.805,6.029,0.005,-0.018,-0.02,102.0,100.0,99.0,13.4,1505.2,319.9,-0.8,1.8,2471.079,13.28,0.018,164.5
2022-09-04T00:10:03,42.805,6.029,0.018,0.002,-0.021,101.0,99.0,102.0,13.4,1505.2,326.3,-0.8,1.8,2471.068,13.28,0.018,83.7
2022-09-04T00:13:03,42.805,6.029,-0.008,-0.018,-0.042,100.0,100.0,100.0,13.4,1505.2,333.9,-0.7,1.9,2471.076,13.29,0.019,204.0
2022-09-04T00:16:03,42.805,6.029,-0.014,0.0,-0.044,100.0,101.0,100.0,13.4,1505.2,332.9,-0.7,1.8,2471.055,13.29,0.014,270.0
2022-09-04T00:19:03,42.805,6.029,0.008,-0.025,-0.045,100.0,101.0,99.0,13.3,1505.2,331.6,-0.8,1.8,2471.088,13.29,0.026,162.3
2022-09-04T00:22:03,42.805,6.029,0.005,-0.008,-0.034,101.0,102.0,99.0,13.4,1505.2,331.4,-0.8,1.8,2471.067,13.29,0.009,148.0
2022-09-04T00:25:03,42.805,6.029,0.012,-0.004,-0.022,101.0,100.0,100.0,13.3,1505.2,330.7,-0.8,1.8,2471.065,13.29,0.012,108.4
2022-09-04T00:28:03,42.805,6.029,0.011,0.011,-0.035,101.0,99.0,100.0,13.4,1505.2,317.7,-0.8,1.8,2471.042,13.29,0.015,45.0
2022-09-04T00:31:03,42.805,6.029,0.006,0.009,-0.039,100.0,100.0,100.0,13.4,1505.2,328.3,-0.7,1.8,2471.038,13.29,0.01,33.7
2022-09-04T00:34:03,42.805,6.029,0.008,-0.003,-0.05,101.0,101.0,101.0,13.4,1505.2,322.6,-0.7,1.8,2471.064,13.29,0.008,110.6
2022-09-04T00:37:03,42.805,6.029,0.007,-0.019,-0.043,102.0,101.0,100.0,13.4,1505.2,325.5,-0.7,1.8,2471.043,13.29,0.02,159.8
2022-09-04T00:40:03,42.805,6.029,-0.017,-0.015,-0.045,100.0,101.0,100.0,13.4,1505.2,329.7,-0.7,1.8,2471.009,13.29,0.022,228.6
2022-09-04T00:43:03,42.805,6.029,0.003,0.006,-0.009,100.0,100.0,100.0,13.4,1505.2,327.8,-0.8,1.8,2471.038,13.29,0.006,26.6
2022-09-04T00:46:03,42.805,6.029,-0.008,-0.016,-0.02,100.0,102.0,100.0,13.3,1505.2,325.4,-0.8,1.8,2471.055,13.29,0.017,206.6
2022-09-04T00:49:03,42.805,6.029,0.002,-0.014,-0.046,100.0,101.0,100.0,13.3,1505.2,329.1,-0.8,1.8,2471.034,13.29,0.014,171.9
2022-09-04T00:52:03,42.805,6.029,0.008,0.012,-0.023,100.0,101.0,100.0,13.4,1505.2,321.4,-0.8,1.8,2471.072,13.29,0.014,33.7
2022-09-04T00:55:03,42.805,6.029,0.012,0.009,-0.022,100.0,101.0,100.0,13.3,1505.2,318.2,-0.8,1.8,2471.02,13.29,0.015,53.1
2022-09-04T00:58:03,42.805,6.029,-0.007,-0.002,-0.04,101.0,102.0,100.0,13.4,1505.2,321.1,-0.8,1.8,2471.009,13.29,0.007,254.1
2022-09-04T01:04:03,42.805,6.029,0.009,-0.016,-0.029,102.0,103.0,101.0,13.4,1505.2,325.8,-0.8,1.8,2471.12,13.28,0.018,150.6
2022-09-04T01:07:03,42.805,6.029,0.026,-0.001,-0.007,105.0,101.0,101.0,13.4,1505.2,330.7,-0.8,1.8,2471.064,13.28,0.026,92.2
2022-09-04T01:10:03,42.805,6.029,-0.011,0.012,-0.011,100.0,101.0,100.0,13.4,1505.2,322.3,-0.8,1.8,2471.082,13.29,0.016,317.5
2022-09-04T01:13:03,42.805,6.029,-0.009,0.012,-0.019,103.0,103.0,99.0,13.3,1505.2,332.8,-0.8,1.8,2471.066,13.29,0.015,323.1
2022-09-04T01:16:03,42.805,6.029,0.014,-0.019,-0.029,102.0,100.0,100.0,13.3,1505.2,324.6,-0.8,1.8,2471.072,13.29,0.023,143.6
2022-09-04T01:19:03,42.805,6.029,-0.007,-0.008,-0.015,101.0,100.0,100.0,13.3,1505.2,328.3,-0.7,1.8,2471.086,13.29,0.01,221.2
2022-09-04T01:22:03,42.805,6.029,-0.018,-0.028,-0.052,101.0,104.0,99.0,13.4,1505.2,319.5,-0.8,1.9,2471.074,13.29,0.033,212.7
2022-09-04T01:25:03,42.805,6.029,0.02,-0.026,-0.036,101.0,101.0,100.0,13.3,1505.2,325.8,-0.8,1.8,2471.032,13.29,0.032,142.4
2022-09-04T01:28:03,42.805,6.029,-0.002,-0.017,-0.047,101.0,102.0,101.0,13.4,1505.2,328.0,-0.7,1.8,2471.04,13.29,0.017,186.7
2022-09-04T01:31:03,42.805,6.029,0.004,0.018,-0.01,101.0,102.0,100.0,13.3,1505.2,330.0,-0.7,1.8,2471.094,13.29,0.018,12.5
2022-09-04T01:34:03,42.805,6.029,0.003,0.003,-0.025,101.0,101.0,100.0,13.4,1505.2,325.7,-0.8,1.8,2471.044,13.29,0.004,45.0
2022-09-04T01:37:03,42.805,6.029,-0.011,0.004,-0.035,100.0,102.0,100.0,13.4,1505.2,323.5,-0.8,1.8,2471.066,13.29,0.011,290.0
2022-09-04T01:40:03,42.805,6.029,0.013,-0.011,-0.061,101.0,99.0,100.0,13.4,1505.2,328.7,-0.7,1.8,2471.006,13.29,0.017,130.2
2022-09-04T01:43:03,42.805,6.029,0.023,-0.02,-0.022,99.0,100.0,102.0,13.4,1505.2,331.1,-0.8,1.8,2471.066,13.29,0.03,131.0
2022-09-04T01:46:03,42.805,6.029,0.005,0.012,-0.009,101.0,101.0,101.0,13.3,1505.2,326.7,-0.8,1.8,2471.022,13.29,0.013,22.6
2022-09-04T01:49:03,42.805,6.029,-0.001,-0.003,-0.043,100.0,102.0,101.0,13.4,1505.2,325.2,-0.8,1.8,2471.022,13.29,0.003,198.4
2022-09-04T01:52:03,42.805,6.029,0.0,0.01,-0.02,99.0,101.0,100.0,13.4,1505.2,330.4,-0.8,1.8,2470.988,13.29,0.01,0.0
2022-09-04T01:55:03,42.805,6.029,0.007,-0.011,-0.056,101.0,101.0,99.0,13.4,1505.2,322.6,-0.7,1.8,2471.046,13.29,0.013,147.5
2022-09-04T01:58:03,42.805,6.029,-0.013,0.02,-0.046,100.0,101.0,100.0,13.3,1505.2,334.2,-0.8,1.8,2471.02,13.29,0.023,327.0
2022-09-04T02:04:03,42.805,6.029,-0.004,0.004,-0.002,100.0,101.0,100.0,13.3,1505.2,326.3,-0.8,1.8,2471.051,13.28,0.005,315.0
2022-09-04T02:07:03,42.805,6.029,0.001,0.009,0.003,101.0,101.0,100.0,13.4,1505.2,324.7,-0.7,1.8,2471.084,13.29,0.009,6.3
2022-09-04T02:10:03,42.805,6.029,0.0,0.014,-0.001,101.0,101.0,101.0,13.4,1505.2,322.4,-0.8,1.8,2471.014,13.29,0.014,0.0
2022-09-04T02:13:03,42.805,6.029,0.01,0.003,-0.012,102.0,101.0,101.0,13.4,1505.2,323.2,-0.7,1.8,2471.027,13.29,0.01,73.3
2022-09-04T02:16:03,42.805,6.029,-0.011,-0.01,-0.038,103.0,100.0,99.0,13.4,1505.2,327.8,-0.7,1.8,2471.052,13.29,0.014,227.7
2022-09-04T02:19:03,42.805,6.029,0.01,-0.007,0.004,101.0,101.0,101.0,13.4,1505.2,322.5,-0.8,1.8,2471.067,13.29,0.012,125.0
2022-09-04T02:22:03,42.805,6.029,-0.011,0.0,-0.051,100.0,102.0,100.0,13.4,1505.2,328.1,-0.8,1.8,2471.081,13.29,0.011,270.0
2022-09-04T02:25:03,42.805,6.029,0.007,0.004,-0.007,101.0,100.0,100.0,13.4,1505.2,319.9,-0.8,1.8,2471.011,13.29,0.008,60.3
2022-09-04T02:28:03,42.805,6.029,-0.004,0.005,-0.001,101.0,101.0,101.0,13.4,1505.2,323.8,-0.7,1.8,2471.012,13.29,0.006,321.3
2022-09-04T02:31:03,42.805,6.029,0.006,0.001,-0.016,101.0,101.0,100.0,13.4,1505.2,324.4,-0.7,1.8,2471.007,13.29,0.006,80.5
2022-09-04T02:34:03,42.805,6.029,0.018,-0.019,-0.029,101.0,101.0,100.0,13.4,1505.2,322.3,-0.8,1.8,2471.006,13.29,0.026,136.5
2022-09-04T02:37:03,42.805,6.029,-0.007,0.004,-0.021,100.0,101.0,100.0,13.4,1505.2,322.9,-0.8,1.8,2471.067,13.29,0.008,299.7
2022-09-04T02:40:03,42.805,6.029,0.006,-0.005,-0.032,102.0,100.0,100.0,13.4,1505.2,321.8,-0.8,1.8,2471.008,13.29,0.007,129.8
2022-09-04T02:43:03,42.805,6.029,0.015,-0.033,-0.026,99.0,102.0,101.0,13.3,1505.2,329.5,-0.8,1.8,2471.034,13.29,0.036,155.6
2022-09-04T02:46:03,42.805,6.029,0.013,-0.019,-0.023,101.0,101.0,99.0,13.3,1505.2,331.7,-0.7,1.8,2470.996,13.29,0.023,145.6
2022-09-04T02:49:03,42.805,6.029,0.02,-0.026,-0.065,101.0,102.0,100.0,13.4,1505.2,333.9,-0.8,1.8,2471.014,13.29,0.032,142.4
2022-09-04T02:52:03,42.805,6.029,0.004,-0.007,-0.017,102.0,100.0,100.0,13.4,1505.2,324.0,-0.7,1.8,2471.02,13.29,0.008,150.3
2022-09-04T02:55:03,42.805,6.029,0.016,0.015,-0.003,101.0,100.0,99.0,13.3,1505.2,321.1,-0.7,1.8,2470.996,13.29,0.021,46.9
2022-09-04T02:58:03,42.805,6.029,-0.011,0.011,-0.037,100.0,104.0,99.0,13.4,1505.2,330.7,-0.8,1.8,2471.062,13.29,0.015,315.0
2022-09-04T03:04:03,42.805,6.029,-0.005,0.015,0.001,101.0,101.0,99.0,13.3,1505.2,323.8,-0.8,1.8,2471.046,13.28,0.015,341.6
2022-09-04T03:07:03,42.805,6.029,0.015,-0.017,-0.01,99.0,100.0,101.0,13.3,1505.2,334.2,-0.7,1.9,2471.041,13.29,0.022,138.6
2022-09-04T03:10:03,42.805,6.029,-0.003,0.004,-0.014,102.0,102.0,100.0,13.4,1505.2,318.0,-0.8,1.8,2471.049,13.29,0.005,323.1
2022-09-04T03:13:03,42.805,6.029,0.01,-0.002,-0.01,102.0,100.0,102.0,13.4,1505.2,321.4,-0.7,1.8,2471.046,13.29,0.01,101.3
2022-09-04T03:16:03,42.805,6.029,0.002,0.019,-0.014,100.0,102.0,101.0,13.4,1505.2,328.4,-0.7,1.7,2470.986,13.29,0.019,6.0
2022-09-04T03:19:03,42.805,6.029,-0.01,-0.002,-0.024,100.0,101.0,100.0,13.3,1505.2,331.4,-0.8,1.8,2471.01,13.29,0.01,258.7
2022-09-04T03:22:03,42.805,6.029,0.006,0.01,0.022,101.0,101.0,103.0,13.4,1505.2,331.0,-0.7,1.8,2471.057,13.29,0.011,31.0
2022-09-04T03:25:03,42.805,6.029,0.003,-0.004,-0.041,102.0,100.0,100.0,13.3,1505.2,324.8,-0.8,1.8,2471.01,13.29,0.005,143.1
2022-09-04T03:28:03,42.805,6.029,-0.002,0.005,-0.02,100.0,104.0,100.0,13.3,1505.2,323.8,-0.8,1.8,2471.047,13.29,0.005,338.2
2022-09-04T03:31:03,42.805,6.029,0.001,-0.005,-0.05,100.0,102.0,99.0,13.4,1505.2,319.2,-0.8,1.8,2471.02,13.29,0.005,168.7
2022-09-04T03:34:03,42.805,6.029,0.018,-0.014,-0.046,102.0,101.0,99.0,13.4,1505.2,324.0,-0.7,1.8,2471.011,13.29,0.022,127.9
2022-09-04T03:37:03,42.805,6.029,0.011,-0.008,-0.027,101.0,100.0,101.0,13.4,1505.2,318.6,-0.8,1.8,2471.003,13.29,0.013,126.0
2022-09-04T03:40:03,42.805,6.029,0.02,0.003,-0.037,102.0,99.0,100.0,13.4,1505.2,321.0,-0.8,1.8,2470.998,13.29,0.02,81.5
2022-09-04T03:43:03,42.805,6.029,0.011,-0.004,-0.049,99.0,100.0,100.0,13.4,1505.2,328.3,-0.8,1.8,2471.004,13.29,0.011,110.0
2022-09-04T03:46:03,42.805,6.029,0.007,0.006,-0.004,100.0,101.0,101.0,13.3,1505.2,320.2,-0.8,1.8,2471.002,13.29,0.009,49.4
2022-09-04T03:49:03,42.805,6.029,-0.011,0.008,-0.014,100.0,100.0,101.0,13.4,1505.2,317.6,-0.8,1.8,2470.991,13.29,0.013,306.0
2022-09-04T03:52:03,42.805,6.029,-0.007,0.016,-0.007,100.0,101.0,100.0,13.4,1505.2,328.5,-0.8,1.8,2471.008,13.29,0.017,336.4
2022-09-04T03:55:03,42.805,6.029,-0.009,0.001,-0.03,101.0,100.0,100.0,13.4,1505.2,334.5,-0.7,1.8,2470.982,13.29,0.009,276.3
2022-09-04T03:58:03,42.805,6.029,-0.007,0.016,0.001,101.0,101.0,99.0,13.4,1505.2,328.3,-0.7,1.8,2470.993,13.29,0.017,336.4
2022-09-04T04:04:03,42.805,6.029,0.016,-0.017,-0.019,99.0,102.0,101.0,13.3,1505.2,324.3,-0.8,1.8,2471.077,13.28,0.023,136.7
2022-09-04T04:07:03,42.805,6.029,-0.003,-0.006,-0.035,99.0,101.0,101.0,13.4,1505.2,327.3,-0.8,1.8,2471.04,13.28,0.006,206.6
2022-09-04T04:10:03,42.805,6.029,0.001,-0.003,-0.028,101.0,100.0,100.0,13.3,1505.2,327.3,-0.7,1.8,2471.02,13.28,0.003,161.6
2022-09-04T04:13:03,42.805,6.029,-0.007,-0.014,-0.032,102.0,100.0,99.0,13.3,1505.2,321.1,-0.8,1.8,2471.027,13.29,0.015,206.6
2022-09-04T04:16:03,42.805,6.029,0.004,-0.006,-0.028,100.0,100.0,100.0,13.4,1505.2,322.3,-0.8,1.8,2471.029,13.29,0.007,146.3
2022-09-04T04:19:03,42.805,6.029,0.004,-0.001,-0.045,100.0,103.0,100.0,13.3,1505.2,324.8,-0.8,1.8,2471.004,13.29,0.004,104.0
2022-09-04T04:22:03,42.805,6.029,-0.014,-0.018,-0.06,100.0,100.0,101.0,13.4,1505.2,323.0,-0.7,1.8,2470.976,13.29,0.022,217.9
2022-09-04T04:25:03,42.805,6.029,0.009,-0.001,-0.027,100.0,100.0,100.0,13.4,1505.2,327.8,-0.7,1.8,2470.994,13.29,0.009,96.3
2022-09-04T04:28:03,42.805,6.029,0.011,-0.011,-0.033,100.0,102.0,99.0,13.3,1505.2,324.5,-0.8,1.8,2470.972,13.29,0.015,135.0
2022-09-04T04:31:03,42.805,6.029,0.03,0.003,0.004,100.0,101.0,100.0,13.4,1505.2,321.0,-0.7,1.8,2470.993,13.29,0.03,84.3
2022-09-04T04:34:03,42.805,6.029,0.015,0.0,-0.035,101.0,99.0,99.0,13.4,1505.2,325.7,-0.8,1.8,2471.01,13.29,0.015,90.0
2022-09-04T04:37:03,42.805,6.029,0.01,-0.009,-0.031,101.0,101.0,99.0,13.3,1505.2,318.8,-0.8,1.8,2470.972,13.29,0.013,132.0
2022-09-04T04:40:03,42.805,6.029,-0.026,-0.002,-0.034,99.0,101.0,100.0,13.4,1505.2,327.5,-0.7,1.8,2470.965,13.29,0.026,265.6
2022-09-04T04:43:03,42.805,6.029,0.002,-0.012,-0.027,99.0,101.0,100.0,13.3,1505.2,333.7,-0.7,1.8,2470.97,13.29,0.012,170.5
2022-09-04T04:46:03,42.805,6.029,0.02,-0.011,-0.011,101.0,101.0,99.0,13.4,1505.2,330.4,-0.8,1.8,2470.941,13.29,0.022,118.8
2022-09-04T04:49:03,42.805,6.029,0.007,-0.007,-0.032,101.0,101.0,99.0,13.4,1505.2,332.8,-0.8,1.8,2470.987,13.29,0.009,135.0
2022-09-04T04:52:03,42.805,6.029,0.025,-0.033,-0.006,100.0,101.0,100.0,13.4,1505.2,332.8,-0.8,1.8,2470.977,13.29,0.041,142.8
2022-09-04T04:55:03,42.805,6.029,0.0,0.005,-0.035,101.0,102.0,98.0,13.3,1505.2,327.5,-0.7,1.8,2471.0,13.29,0.005,0.0
2022-09-04T04:58:03,42.805,6.029,-0.001,-0.009,-0.033,101.0,100.0,101.0,13.4,1505.2,333.4,-0.8,1.8,2470.982,13.29,0.009,186.3
2022-09-04T05:04:03,42.805,6.029,0.011,0.005,0.004,100.0,101.0,100.0,13.3,1505.2,322.7,-0.8,1.9,2471.022,13.28,0.012,65.6
2022-09-04T05:07:03,42.805,6.029,0.015,-0.001,-0.012,101.0,101.0,101.0,13.4,1505.2,328.4,-0.8,1.8,2471.0,13.28,0.015,93.8
2022-09-04T05:10:03,42.805,6.029,0.028,-0.016,-0.033,101.0,102.0,101.0,13.3,1505.2,325.1,-0.7,1.8,2471.015,13.28,0.032,119.7
2022-09-04T05:13:03,42.805,6.029,0.028,-0.015,-0.02,102.0,101.0,100.0,13.4,1505.2,327.7,-0.8,1.8,2470.998,13.29,0.031,118.2
2022-09-04T05:16:03,42.805,6.029,-0.02,0.006,-0.06,99.0,102.0,101.0,13.4,1505.2,328.3,-0.8,1.8,2471.013,13.29,0.02,286.7
2022-09-04T05:19:03,42.805,6.029,0.026,-0.002,-0.025,101.0,100.0,100.0,13.3,1505.2,318.0,-0.8,1.8,2470.955,13.29,0.026,94.4
2022-09-04T05:22:03,42.805,6.029,0.005,-0.023,-0.053,101.0,100.0,101.0,13.4,1505.2,318.5,-0.8,1.8,2470.977,13.29,0.023,167.7
2022-09-04T05:25:03,42.805,6.029,0.023,-0.01,0.014,102.0,102.0,99.0,13.3,1505.2,331.0,-0.8,1.8,2470.986,13.29,0.025,113.5
2022-09-04T05:28:03,42.805,6.029,-0.009,0.009,-0.006,100.0,100.0,101.0,13.4,1505.2,333.7,-0.8,1.9,2470.994,13.29,0.012,315.0
2022-09-04T05:31:03,42.805,6.029,0.005,0.017,0.009,101.0,102.0,100.0,13.4,1505.2,333.7,-0.8,1.8,2470.968,13.29,0.017,16.4
2022-09-04T05:34:03,42.805,6.029,0.002,-0.009,-0.011,101.0,100.0,100.0,13.4,1505.2,332.0,-0.8,1.9,2470.992,13.29,0.009,167.5
2022-09-04T05:37:03,42.805,6.029,0.007,0.007,-0.07,101.0,102.0,99.0,13.4,1505.2,331.1,-0.8,1.8,2470.967,13.29,0.009,45.0
2022-09-04T05:40:03,42.805,6.029,-0.003,-0.003,-0.031,101.0,101.0,100.0,13.4,1505.2,323.6,-0.8,1.8,2470.964,13.29,0.004,225.0
2022-09-04T05:43:03,42.805,6.029,0.017,0.013,-0.003,102.0,101.0,100.0,13.4,1505.2,330.6,-0.8,1.8,2470.965,13.29,0.021,52.6
2022-09-04T05:46:03,42.805,6.029,0.021,-0.014,-0.029,101.0,101.0,101.0,13.4,1505.2,324.5,-0.8,1.8,2470.937,13.29,0.025,123.7
2022-09-04T05:49:03,42.805,6.029,0.014,0.014,0.003,101.0,103.0,100.0,13.4,1505.2,321.4,-0.8,1.8,2470.98,13.29,0.019,45.0
2022-09-04T05:52:03,42.805,6.029,0.029,0.005,-0.021,103.0,101.0,100.0,13.3,1505.2,333.4,-0.7,1.8,2470.951,13.29,0.029,80.2
2022-09-04T05:55:03,42.805,6.029,0.032,-0.011,-0.019,101.0,101.0,100.0,13.3,1505.2,323.8,-0.8,1.8,2470.972,13.29,0.033,109.0
2022-09-04T05:58:03,42.805,6.029,-0.001,0.005,-0.017,102.0,102.0,99.0,13.3,1505.2,329.0,-0.8,1.8,2470.935,13.29,0.005,348.7
2022-09-04T06:04:03,42.805,6.029,0.001,-0.013,-0.025,102.0,100.0,100.0,13.4,1505.2,325.2,-0.8,1.8,2470.959,13.28,0.013,175.6
2022-09-04T06:07:03,42.805,6.029,0.015,0.003,-0.043,101.0,104.0,99.0,13.4,1505.2,326.8,-0.7,1.8,2471.005,13.28,0.015,78.7
2022-09-04T06:10:03,42.805,6.029,0.025,-0.003,-0.008,103.0,101.0,100.0,13.4,1505.2,325.1,-0.7,1.8,2470.995,13.28,0.025,96.8
2022-09-04T06:13:03,42.805,6.029,0.028,-0.016,-0.001,100.0,101.0,100.0,13.4,1505.2,330.4,-0.8,1.8,2470.939,13.28,0.032,119.7
2022-09-04T06:16:03,42.805,6.029,0.009,-0.016,-0.042,101.0,101.0,99.0,13.4,1505.2,333.1,-0.8,1.8,2470.957,13.29,0.018,150.6
2022-09-04T06:19:03,42.805,6.029,0.016,0.004,-0.015,101.0,100.0,99.0,13.4,1505.2,323.2,-0.7,1.8,2470.994,13.29,0.016,76.0
2022-09-04T06:22:03,42.805,6.029,-0.002,0.017,-0.026,99.0,100.0,100.0,13.4,1505.2,321.0,-0.7,1.8,2470.956,13.29,0.017,353.3
2022-09-04T06:25:03,42.805,6.029,0.0,0.009,-0.02,100.0,99.0,100.0,13.4,1505.2,328.3,-0.8,1.8,2470.919,13.29,0.009,0.0
2022-09-04T06:28:03,42.805,6.029,0.035,0.01,-0.022,99.0,102.0,101.0,13.4,1505.2,320.7,-0.8,1.8,2470.957,13.29,0.036,74.1
2022-09-04T06:31:03,42.805,6.029,0.022,-0.034,-0.052,99.0,101.0,99.0,13.3,1505.2,334.0,-0.8,1.8,2470.98,13.29,0.04,147.1
2022-09-04T06:34:03,42.805,6.029,0.034,0.004,0.011,100.0,102.0,100.0,13.4,1505.2,332.5,-0.8,1.8,2470.961,13.29,0.034,83.3
2022-09-04T06:37:03,42.805,6.029,0.019,0.002,-0.006,101.0,101.0,100.0,13.3,1505.2,333.4,-0.8,1.8,2470.941,13.29,0.019,84.0
2022-09-04T06:40:03,42.805,6.029,0.005,0.001,-0.013,99.0,103.0,100.0,13.3,1505.2,321.8,-0.8,1.8,2470.929,13.29,0.005,78.7
2022-09-04T06:43:03,42.805,6.029,-0.002,0.014,-0.026,100.0,101.0,99.0,13.4,1505.2,332.5,-0.8,1.8,2470.954,13.29,0.014,351.9
2022-09-04T06:46:03,42.805,6.029,0.015,-0.014,-0.032,100.0,100.0,100.0,13.4,1505.2,323.3,-0.7,1.8,2470.935,13.29,0.02,133.0
2022-09-04T06:49:03,42.805,6.029,0.0,0.002,-0.013,101.0,99.0,100.0,13.4,1505.2,323.0,-0.8,1.8,2470.914,13.29,0.002,0.0
2022-09-04T06:52:03,42.805,6.029,0.031,-0.003,-0.016,101.0,101.0,100.0,13.4,1505.2,325.0,-0.8,1.8,2470.885,13.29,0.031,95.5
2022-09-04T06:55:03,42.805,6.029,-0.005,-0.006,-0.051,101.0,101.0,100.0,13.4,1505.2,327.7,-0.8,1.8,2470.96,13.29,0.007,219.8
2022-09-04T06:58:03,42.805,6.029,0.02,0.011,0.016,101.0,101.0,100.0,13.3,1505.2,330.9,-0.8,1.8,2470.937,13.29,0.022,61.2
2022-09-04T07:04:03,42.805,6.029,0.013,0.001,0.021,101.0,99.0,100.0,13.4,1505.2,333.9,-0.8,1.8,2470.942,13.28,0.013,85.6
2022-09-04T07:07:03,42.805,6.029,0.007,0.004,-0.005,100.0,101.0,101.0,13.3,1505.2,325.9,-0.8,1.9,2470.985,13.28,0.008,60.3
2022-09-04T07:10:03,42.805,6.029,0.008,0.01,0.0,102.0,100.0,101.0,13.4,1505.2,321.4,-0.8,1.8,2470.961,13.28,0.012,38.7
2022-09-04T07:13:03,42.805,6.029,0.03,-0.01,-0.037,101.0,101.0,101.0,13.3,1505.2,327.9,-0.8,1.8,2470.921,13.28,0.031,108.4
2022-09-04T07:16:03,42.805,6.029,0.01,-0.005,-0.014,101.0,100.0,100.0,13.3,1505.2,326.4,-0.8,1.8,2470.9,13.28,0.011,116.6
2022-09-04T07:19:03,42.805,6.029,0.023,-0.004,0.006,102.0,101.0,100.0,13.3,1505.2,318.0,-0.8,1.8,2470.902,13.29,0.023,99.9
2022-09-04T07:22:03,42.805,6.029,0.015,0.004,-0.018,101.0,99.0,100.0,13.4,1505.2,322.6,-0.8,1.8,2470.878,13.29,0.015,75.1
2022-09-04T07:25:03,42.805,6.029,0.018,-0.002,0.007,102.0,101.0,100.0,13.4,1505.2,329.6,-0.8,1.8,2470.932,13.29,0.018,96.3
2022-09-04T07:28:03,42.805,6.029,-0.004,-0.004,-0.061,100.0,102.0,99.0,13.4,1505.2,316.9,-0.8,1.8,2470.88,13.29,0.005,225.0
2022-09-04T07:31:03,42.805,6.029,-0.003,-0.015,-0.047,100.0,101.0,102.0,13.4,1505.2,329.3,-0.8,1.8,2470.925,13.29,0.015,191.3
2022-09-04T07:34:03,42.805,6.029,0.023,-0.001,-0.024,100.0,100.0,101.0,13.4,1505.2,330.8,-0.8,1.8,2470.864,13.29,0.023,92.5
2022-09-04T07:37:03,42.805,6.029,0.035,-0.013,-0.007,101.0,100.0,100.0,13.3,1505.2,333.1,-0.7,1.8,2470.961,13.29,0.037,110.4
2022-09-04T07:40:03,42.805,6.029,0.016,-0.003,-0.032,101.0,101.0,100.0,13.4,1505.2,332.3,-0.7,1.8,2470.914,13.29,0.016,100.6
2022-09-04T07:43:03,42.805,6.029,-0.014,0.006,-0.018,100.0,101.0,100.0,13.3,1505.2,322.6,-0.8,1.8,2470.918,13.29,0.015,293.2
2022-09-04T07:46:03,42.805,6.029,0.0,0.003,-0.008,100.0,102.0,100.0,13.4,1505.2,329.1,-0.8,1.8,2470.959,13.29,0.003,0.0
2022-09-04T07:49:03,42.805,6.029,0.021,-0.008,-0.015,101.0,101.0,100.0,13.4,1505.2,321.8,-0.7,1.8,2470.918,13.29,0.022,110.9
2022-09-04T07:52:03,42.805,6.029,0.007,0.023,-0.01,102.0,101.0,100.0,13.4,1505.2,329.5,-0.8,1.8,2470.964,13.29,0.024,16.9
2022-09-04T07:55:03,42.805,6.029,0.006,-0.002,-0.02,101.0,99.0,100.0,13.4,1505.2,317.2,-0.8,1.8,2470.938,13.29,0.006,108.4
2022-09-04T07:58:03,42.805,6.029,0.026,-0.019,-0.021,101.0,101.0,100.0,13.3,1505.2,319.6,-0.7,1.8,2470.9,13.29,0.032,126.2
2022-09-04T08:04:03,42.805,6.029,0.006,-0.013,-0.037,101.0,101.0,99.0,13.4,1505.2,326.9,-0.8,1.8,2470.99,13.28,0.014,155.2
2022-09-04T08:07:03,42.805,6.029,0.003,-0.005,-0.022,101.0,101.0,100.0,13.4,1505.2,317.8,-0.8,1.8,2470.977,13.28,0.005,149.0
2022-09-04T08:10:03,42.805,6.029,0.019,0.008,0.009,100.0,101.0,100.0,13.4,1505.2,320.4,-0.8,1.8,2470.978,13.28,0.02,67.2
2022-09-04T08:13:03,42.805,6.029,0.003,-0.011,-0.023,100.0,101.0,100.0,13.3,1505.2,320.9,-0.8,1.8,2470.967,13.28,0.011,164.7
2022-09-04T08:16:03,42.805,6.029,0.002,0.0,-0.036,101.0,101.0,101.0,13.4,1505.2,323.3,-0.8,1.8,2470.975,13.28,0.002,90.0
2022-09-04T08:19:03,42.805,6.029,0.019,-0.003,-0.022,101.0,101.0,100.0,13.4,1505.2,327.2,-0.8,1.8,2470.947,13.28,0.019,99.0
2022-09-04T08:22:03,42.805,6.029,-0.014,-0.005,-0.028,100.0,101.0,101.0,13.4,1505.2,328.8,-0.7,1.8,2470.961,13.29,0.014,250.4
2022-09-04T08:25:03,42.805,6.029,0.009,0.0,-0.019,101.0,101.0,100.0,13.4,1505.2,319.1,-0.7,1.8,2470.949,13.29,0.009,90.0
2022-09-04T08:28:03,42.805,6.029,0.01,0.001,-0.026,101.0,100.0,100.0,13.3,1505.2,327.0,-0.8,1.8,2470.937,13.29,0.01,84.3
2022-09-04T08:31:03,42.805,6.029,0.016,-0.007,0.016,100.0,101.0,100.0,13.4,1505.2,321.8,-0.8,1.8,2470.932,13.29,0.017,113.6
2022-09-04T08:34:03,42.805,6.029,0.005,-0.021,-0.042,102.0,101.0,101.0,13.4,1505.2,321.7,-0.8,1.8,2470.95,13.29,0.021,166.6
2022-09-04T08:37:03,42.805,6.029,0.019,-0.013,-0.022,101.0,103.0,100.0,13.3,1505.2,325.9,-0.8,1.8,2470.93,13.29,0.023,124.4
2022-09-04T08:40:03,42.805,6.029,0.005,0.015,-0.039,102.0,100.0,101.0,13.3,1505.2,321.4,-0.7,1.9,2470.968,13.29,0.015,18.4
2022-09-04T08:43:03,42.805,6.029,0.006,-0.008,-0.014,101.0,101.0,101.0,13.3,1505.2,324.3,-0.8,1.8,2470.967,13.29,0.01,143.1
2022-09-04T08:46:03,42.805,6.029,0.002,-0.003,-0.04,101.0,103.0,101.0,13.4,1505.2,327.7,-0.7,1.8,2470.936,13.29,0.003,146.3
2022-09-04T08:49:03,42.805,6.029,0.017,0.001,-0.012,102.0,101.0,99.0,13.4,1505.2,330.7,-0.8,1.8,2470.965,13.29,0.017,86.6
2022-09-04T08:52:03,42.805,6.029,0.011,-0.011,-0.021,101.0,102.0,100.0,13.4,1505.2,330.8,-0.8,1.8,2470.979,13.29,0.015,135.0
2022-09-04T08:55:03,42.805,6.029,-0.006,-0.008,0.002,102.0,100.0,100.0,13.3,1505.2,323.4,-0.8,1.8,2470.945,13.29,0.01,216.9
2022-09-04T08:58:03,42.805,6.029,-0.011,-0.009,-0.021,102.0,101.0,100.0,13.3,1505.2,327.5,-0.7,1.8,2470.959,13.29,0.014,230.7
2022-09-04T09:04:03,42.805,6.029,0.023,-0.019,-0.008,101.0,102.0,100.0,13.4,1505.2,326.8,-0.8,1.8,2471.008,13.28,0.029,129.6
2022-09-04T09:07:03,42.805,6.029,0.009,-0.002,-0.024,102.0,99.0,100.0,13.4,1505.2,319.2,-0.8,1.8,2470.961,13.28,0.009,102.5
2022-09-04T09:10:03,42.805,6.029,0.014,0.006,-0.004,101.0,101.0,100.0,13.4,1505.2,329.1,-0.8,1.8,2470.968,13.28,0.015,66.8
2022-09-04T09:13:03,42.805,6.029,0.01,-0.001,-0.002,100.0,101.0,100.0,13.4,1505.2,332.8,-0.7,1.8,2471.009,13.28,0.01,95.7
2022-09-04T09:16:03,42.805,6.029,0.004,-0.002,-0.031,101.0,101.0,100.0,13.4,1505.2,318.8,-0.8,1.8,2470.973,13.29,0.004,116.6
2022-09-04T09:19:03,42.805,6.029,0.03,-0.016,-0.005,100.0,100.0,100.0,13.4,1505.2,321.0,-0.8,1.8,2470.974,13.29,0.034,118.1
2022-09-04T09:22:03,42.805,6.029,0.026,-0.002,-0.014,100.0,101.0,100.0,13.4,1505.2,316.1,-0.7,1.8,2471.017,13.29,0.026,94.4
2022-09-04T09:25:03,42.805,6.029,-0.002,0.004,-0.02,102.0,101.0,99.0,13.3,1505.2,317.9,-0.8,1.8,2470.962,13.29,0.004,333.4
2022-09-04T09:28:03,42.805,6.029,0.014,-0.011,-0.018,100.0,101.0,100.0,13.4,1505.2,327.0,-0.8,1.8,2470.959,13.29,0.017,128.2
2022-09-04T09:31:03,42.805,6.029,0.006,0.009,-0.007,100.0,101.0,100.0,13.4,1505.2,332.8,-0.8,1.8,2470.973,13.29,0.01,33.7
2022-09-04T09:34:03,42.805,6.029,0.008,-0.006,-0.026,101.0,101.0,100.0,13.3,1505.2,326.1,-0.8,1.8,2470.961,13.29,0.01,126.9
2022-09-04T09:37:03,42.805,6.029,-0.005,-0.001,-0.022,101.0,103.0,99.0,13.4,1505.2,327.3,-0.7,1.8,2470.994,13.29,0.005,258.7
2022-09-04T09:40:03,42.805,6.029,0.017,0.0,-0.007,101.0,102.0,99.0,13.4,1505.2,322.8,-0.8,1.8,2470.976,13.29,0.017,90.0
2022-09-04T09:43:03,42.805,6.029,-0.003,-0.011,-0.032,100.0,101.0,101.0,13.4,1505.2,332.8,-0.7,1.8,2470.972,13.29,0.011,195.3
2022-09-04T09:46:03,42.805,6.029,0.005,-0.01,-0.014,100.0,102.0,100.0,13.3,1505.2,320.1,-0.8,1.9,2471.014,13.29,0.011,153.4
2022-09-04T09:49:03,42.805,6.029,0.003,-0.004,-0.024,101.0,102.0,100.0,13.4,1505.2,328.2,-0.8,1.8,2470.983,13.29,0.005,143.1
2022-09-04T09:52:03,42.805,6.029,0.017,0.0,-0.035,102.0,101.0,100.0,13.3,1505.2,320.0,-0.8,1.8,2470.951,13.29,0.017,90.0
2022-09-04T09:55:03,42.805,6.029,0.016,-0.012,-0.04,101.0,101.0,100.0,13.4,1505.2,318.6,-0.8,1.8,2470.999,13.29,0.02,126.9
2022-09-04T09:58:03,42.805,6.029,-0.005,-0.004,-0.053,101.0,101.0,100.0,13.4,1505.2,326.1,-0.7,1.8,2470.991,13.29,0.006,231.3